Weather Roundup
Issued by NWS

Home | Current Version | Previous Version | Graphics & Text | Print | Product List | Glossary Off
Versions: 1 2 3 4 5 6 7 8 9 10 11 12 13 14 15 16 17 18 19 20 21 22 23 24 25 26 27 28 29 30 31 32 33 34 35 36 37 38 39 40 41 42 43 44 45 46 47 48 49 50

391
NZUS93 KARX 280610
HRRWXR

CURRENT HOURLY OBSERVATIONS ACROSS
MUCH OF THE UPPER MISSISSIPPI VALLEY
NATIONAL WEATHER SERVICE LA CROSSE WI
100 AM CDT FRI APR 28 2017


...SOUTHEAST MINNESOTA...


CITY           SKY/WX    TMP DP  RH WIND       PRES   REMARKS
ROCHESTER      CLOUDY    33  28  81 W14G20    29.82R WCI  23
ROCHESTER/MAYO MOCLDY    34  27  74 W12G24    29.82R WCI  26
WINONA         CLOUDY    36  28  75 NW8       29.83R WCI  29
AUSTIN         CLOUDY    34  25  69 NW10      29.84R WCI  26
ALBERT LEA     CLEAR     32  27  80 W6        29.84S WCI  26
DODGE CENTER   CLEAR     32  27  80 W9        29.82R WCI  24
PRESTON        CLOUDY    32  26  77 W14G21    29.84R WCI  22
OWATONNA       CLOUDY    34  27  75 W8        29.83S WCI  27
FARIBAULT      CLOUDY    34  28  80 SW8       29.83S WCI  27
$$

...ELSEWHERE IN MINNESOTA...


CITY           SKY/WX    TMP DP  RH WIND       PRES   REMARKS
MINNEAPOLIS    MOCLDY    35  25  66 W10       29.80R WCI  27
INTNL FALLS    CLOUDY    27  22  81 NW8       29.67R WCI  19
DULUTH         CLOUDY    28  23  81 W10       29.66S WCI  19
RED WING       CLOUDY    36  25  64 W8        29.80R WCI  29
REDWOOD FALLS  CLOUDY    35  27  72 SW10      29.82S WCI  27
MANKATO        CLOUDY    33  28  81 SW7       29.84S WCI  27
WORTHINGTON    CLEAR     28  26  92 S3        29.85S
FAIRMONT       CLEAR     31  28  89 CALM      29.86S
$$

...SOUTHWEST WISCONSIN...


CITY           SKY/WX    TMP DP  RH WIND       PRES   REMARKS
LA CROSSE      CLOUDY    38  28  67 W12       29.83R WCI  30
PRAIRIE DU CHI CLOUDY    38  28  66 W14G20    29.86R WCI  30
BOSCOBEL       CLOUDY    39  29  67 W13G20    29.85R WCI  31
LONE ROCK      CLOUDY    39  29  67 W16       29.84R WCI  30
PLATTEVILLE    CLEAR     33  32  96 SW6       29.85R WCI  27
FORT MC COY    CLOUDY    35  29  79 W10       29.82R WCI  27
CAMP DOUGLAS   CLOUDY    35  29  77 W16       29.81R WCI  25
MAUSTON-NEW LI CLOUDY    36  30  78 W14G22    29.80R WCI  27
VIROQUA        CLOUDY    34  29  82 W12G21    29.81S WCI  25
WIS DELLS      CLOUDY    37  29  75 W14       29.81R WCI  28
$$

...ELSEWHERE IN WISCONSIN...


CITY           SKY/WX    TMP DP  RH WIND       PRES   REMARKS
MILWAUKEE      CLOUDY    43  32  65 W16G25    29.83R
MADISON        CLOUDY    39  29  67 VRB5      29.81S
GREEN BAY      CLOUDY    39  34  82 W9        29.76R WCI  33
EAU CLAIRE     CLOUDY    33  24  69 SW7       29.78R WCI  27
BLACK RVR FLS  CLOUDY    35  27  73 W16       29.80R WCI  25
MEDFORD        CLOUDY    29  23  78 W8G17     29.74R WCI  21
WAUSAU         MIX PCPN  31  28  89 W17G24    29.74R WCI  19
WIS RAPIDS     CLOUDY    34  32  92 W6        29.79R WCI  29
MARSHFIELD     CLOUDY    31  27  85 W13G20    29.75R WCI  21
RICE LAKE      CLOUDY    32  26  77 W8        29.77R WCI  25
$$

...NORTHEAST IOWA...


CITY           SKY/WX    TMP DP  RH WIND       PRES   REMARKS
WATERLOO       CLOUDY    33  28  81 CALM      29.86R
DUBUQUE        CLEAR     32  30  92 SW5       29.86R WCI  27
DECORAH        CLOUDY    34  28  80 NW10G17   29.84R WCI  26
MASON CITY     CLEAR     30  25  81 N7        29.87S WCI  23
CHARLES CITY   CLEAR     34  28  80 NW8       29.87R WCI  27
OELWEIN        NOT AVBL
$$

...ELSEWHERE IN IOWA...


CITY           SKY/WX    TMP DP  RH WIND       PRES   REMARKS
DES MOINES     CLOUDY    43  31  62 NE9       29.85R
IOWA CITY      PTCLDY    39  34  82 CALM      29.89R
FORT DODGE     PTCLDY    34  27  75 N9        29.86R WCI  26
MARSHALLTOWN   PTCLDY    34  30  85 N7        29.84S WCI  28
CEDAR RAPIDS   CLOUDY    35  32  88 CALM      29.86R
$$

...NORTHERN ILLINOIS...


CITY           SKY/WX    TMP DP  RH WIND       PRES   REMARKS
CHICAGO-OHARE  PTCLDY    42  36  79 SW7       29.87R
CHICAGO-MIDWAY PTCLDY    43  38  82 SW5       29.88R
MOLINE         PTCLDY    37  34  89 CALM      29.87S FOG
ROCKFORD       CLOUDY    42  34  73 W9        29.90R
PEORIA         CLOUDY    49  45  86 S6        29.87F
$$

NOTE: "FAIR" INDICATES FEW OR NO CLOUDS BELOW 12,000 FEET WITH NO
SIGNIFICANT WEATHER AND/OR OBSTRUCTIONS TO VISIBILITY. WIND
SPEEDS ARE IN MILES-PER-HOUR.




USA.gov is the U.S. government's official web portal to all federal, state and local government web resources and services.